Location: Huberhof
(49.2050°N, 7.4980°E)
Time: 23:55:51
(UTC+00:00)

Cosmos 2058 - Pass Details

Date: 29 October 2020
Orbit: 562 x 584 km, 82.5° (Epoch: 26 November)

Event Time Altitude Azimuth Distance (km) Brightness Sun altitude
Rises 17:28:31 0° 354° (N) 2,768 6.4 -12.8°
Reaches altitude 10° 17:30:45 10° 359° (N) 1,866 5.5 -13.1°
Maximum altitude 17:34:46 52° 77° (ENE) 709 3.0 -13.8°
Drops below altitude 10° 17:38:45 10° 154° (SSE) 1,854 5.3 -14.4°
Sets 17:40:58 0° 159° (SSE) 2,748 6.2 -14.8°
